Hourly Data Report for October 04, 2016

All times are specified in Local Standard Time (LST). Add 1 hour to adjust for Daylight Saving Time where and when it is observed.

KUGLUKTUK A
NUNAVUT

67°49'00.000" N
115°08'38.000" W
22.60 m
2300903
71938
YCO

Download Data

Hourly Data (October 2016)
Hourly Data Report for October 4, 2016
Temp Definition
°C
Dew Point Temp Definition
°C
Rel Hum Definition
%
Wind Dir Definition
10's deg

Wind Spd Definition
km/h
Visibility Definition
km
Stn Press Definition
kPa
Hmdx Definition


Wind Chill Definition


Weather Definition


TIME
00:00 Legend Double Dagger -2.4 -5.6 79 29 14 24.1 101.65   -7 LegendNANA
01:00 Legend Double Dagger -2.2 -5.5 78 30 18 24.1 101.70   -8 LegendNANA
02:00 Legend Double Dagger -2.2 -5.4 79 28 14 24.1 101.72   -7 Cloudy
03:00 Legend Double Dagger -2.2 -5.4 79 29 19 24.1 101.78   -8 LegendNANA
04:00 Legend Double Dagger -2.3 -5.1 81 29 16 24.1 101.82   -7 LegendNANA
05:00 Legend Double Dagger -2.2 -5.0 81 29 18 24.1 101.85   -8 Cloudy
06:00 Legend Double Dagger -2.2 -4.7 83 26 15 24.1 101.89   -7 LegendNANA
07:00 Legend Double Dagger -2.0 -4.5 83 25 20 24.1 101.92   -8 LegendNANA
08:00 Legend Double Dagger -1.9 -4.4 83 25 25 24.1 101.95   -8 Cloudy
09:00 Legend Double Dagger -1.7 -4.5 81 26 26 24.1 101.99   -8 LegendNANA
10:00 Legend Double Dagger -1.8 -4.8 80 26 24 24.1 102.00   -8 LegendNANA
11:00 Legend Double Dagger -1.4 -4.6 79 25 26 24.1 102.03   -8 Cloudy
12:00 Legend Double Dagger -1.1 -4.3 79 25 24 24.1 102.09   -7 Snow Grains
13:00 Legend Double Dagger -0.9 -3.9 80 26 21 24.1 102.11   -7 Snow Grains
14:00 Legend Double Dagger -0.6 -3.8 79 25 23 24.1 102.13   -6 Snow Grains
15:00 Legend Double Dagger -0.8 -4.0 79 26 21 24.1 102.17   -6 LegendNANA
16:00 Legend Double Dagger -0.8 -4.0 79 25 21 24.1 102.20   -6 LegendNANA
17:00 Legend Double Dagger -0.7 -3.6 81 25 20 24.1 102.21   -6 Cloudy
18:00 Legend Double Dagger -0.6 -4.0 78 26 21 24.1 102.22   -6 LegendNANA
19:00 Legend Double Dagger -1.4 -3.6 85 24 15 24.1 102.26   -6 LegendNANA
20:00 Legend Double Dagger -1.6 -4.3 82 23 18 24.1 102.29   -7 Mostly Cloudy
21:00 Legend Double Dagger -1.7 -4.4 82 23 17 24.1 102.32   -7 LegendNANA
22:00 Legend Double Dagger -2.5 -5.0 83 23 13 24.1 102.34   -7 LegendNANA
23:00 Legend Double Dagger -5.1 -7.6 83 24 16 24.1 102.36   -11 Mostly Cloudy

Notes on Data Quality.

Legend

  • E = Estimated
  • M = Missing
  • NA = Not Available
  • ‡ = Partner data that is not subject to review by the National Climate Archives
Date modified: